Time,TemperatureF,DewpointF,PressureIn,WindDirection,WindDirectionDegrees,WindSpeedMPH,WindSpeedGustMPH,Humidity,HourlyPrecipIn,Conditions,Clouds,dailyrainin,SoftwareType,DateUTC
2013-05-13 00:04:00,44.0,40.5,29.40,North,0,0.0,-999.0,87,0.00,,,-99.99,,2013-05-13 08:04:00,
2013-05-13 00:09:00,44.0,40.5,29.40,North,0,0.0,-999.0,87,0.00,,,-99.99,,2013-05-13 08:09:00,
2013-05-13 00:14:00,44.0,40.7,29.40,North,0,0.0,-999.0,87,0.00,,,-99.99,,2013-05-13 08:14:00,
2013-05-13 00:19:00,44.0,40.7,29.40,North,0,0.0,-999.0,87,0.00,,,-99.99,,2013-05-13 08:19:00,
2013-05-13 00:24:00,43.9,40.8,29.40,North,0,0.0,-999.0,88,0.00,,,-99.99,,2013-05-13 08:24:00,
2013-05-13 00:29:00,44.0,40.9,29.40,North,0,0.0,-999.0,88,0.00,,,-99.99,,2013-05-13 08:29:00,
2013-05-13 00:34:00,44.3,41.3,29.40,North,0,0.0,-999.0,89,0.00,,,-99.99,,2013-05-13 08:34:00,
2013-05-13 00:39:00,44.3,41.3,29.40,North,0,0.0,-999.0,89,0.00,,,-99.99,,2013-05-13 08:39:00,
2013-05-13 00:44:00,43.9,40.8,29.40,North,0,0.0,-999.0,88,0.00,,,-99.99,,2013-05-13 08:44:00,
2013-05-13 00:49:00,43.8,41.0,29.40,North,0,0.0,-999.0,89,0.00,,,-99.99,,2013-05-13 08:49:00,
2013-05-13 00:54:00,43.7,41.0,29.40,North,0,0.0,-999.0,90,0.00,,,-99.99,,2013-05-13 08:54:00,
2013-05-13 00:59:00,43.6,41.1,29.40,North,0,0.0,-999.0,90,0.00,,,-99.99,,2013-05-13 08:59:00,
2013-05-13 01:04:00,43.2,40.6,29.40,North,0,0.0,-999.0,90,0.00,,,-99.99,,2013-05-13 09:04:00,
2013-05-13 01:09:00,43.1,40.7,29.40,North,0,0.0,-999.0,91,0.00,,,-99.99,,2013-05-13 09:09:00,
2013-05-13 01:14:00,43.2,40.8,29.40,North,0,0.0,-999.0,91,0.00,,,-99.99,,2013-05-13 09:14:00,
2013-05-13 01:19:00,43.4,41.1,29.40,North,0,0.0,-999.0,91,0.00,,,-99.99,,2013-05-13 09:19:00,
2013-05-13 01:24:00,43.1,40.8,29.40,North,0,0.0,-999.0,91,0.00,,,-99.99,,2013-05-13 09:24:00,
2013-05-13 01:29:00,42.9,40.6,29.40,North,0,0.0,-999.0,91,0.00,,,-99.99,,2013-05-13 09:29:00,
2013-05-13 01:34:00,42.7,40.3,29.40,North,0,0.0,-999.0,90,0.00,,,-99.99,,2013-05-13 09:34:00,
2013-05-13 01:41:00,42.7,40.2,29.40,North,0,0.0,-999.0,90,0.00,,,-99.99,,2013-05-13 09:41:00,
2013-05-13 01:46:00,42.8,40.2,29.40,North,0,0.0,-999.0,90,0.00,,,-99.99,,2013-05-13 09:46:00,
2013-05-13 01:51:00,42.6,40.1,29.40,North,0,0.0,-999.0,90,0.00,,,-99.99,,2013-05-13 09:51:00,
2013-05-13 01:56:00,42.6,40.1,29.40,North,0,0.0,-999.0,90,0.00,,,-99.99,,2013-05-13 09:56:00,
2013-05-13 02:01:00,42.5,40.0,29.38,North,0,0.0,-999.0,90,0.00,,,-99.99,,2013-05-13 10:01:00,
2013-05-13 02:06:00,42.6,40.1,29.38,North,0,0.0,-999.0,91,0.00,,,-99.99,,2013-05-13 10:06:00,
2013-05-13 02:11:00,42.4,40.0,29.38,North,0,0.0,-999.0,91,0.00,,,-99.99,,2013-05-13 10:11:00,
2013-05-13 02:16:00,42.5,40.1,29.38,North,0,0.0,-999.0,91,0.00,,,-99.99,,2013-05-13 10:16:00,
2013-05-13 02:21:00,42.3,39.9,29.38,North,0,0.0,-999.0,91,0.00,,,-99.99,,2013-05-13 10:21:00,
2013-05-13 02:26:00,42.2,39.8,29.38,North,0,0.0,-999.0,91,0.00,,,-99.99,,2013-05-13 10:26:00,
2013-05-13 02:31:00,42.1,39.6,29.38,North,0,0.0,-999.0,90,0.00,,,-99.99,,2013-05-13 10:31:00,
2013-05-13 02:36:00,42.0,39.6,29.38,North,0,0.0,-999.0,90,0.00,,,-99.99,,2013-05-13 10:36:00,
2013-05-13 02:41:00,42.2,39.8,29.38,North,0,0.0,-999.0,91,0.00,,,-99.99,,2013-05-13 10:41:00,
2013-05-13 02:46:00,42.1,39.5,29.38,North,0,0.0,-999.0,90,0.00,,,-99.99,,2013-05-13 10:46:00,
2013-05-13 02:51:00,42.1,39.5,29.38,North,0,0.0,-999.0,90,0.00,,,-99.99,,2013-05-13 10:51:00,
2013-05-13 02:56:00,42.1,39.6,29.38,North,0,0.0,-999.0,90,0.00,,,-99.99,,2013-05-13 10:56:00,
2013-05-13 03:01:00,42.1,39.6,29.38,North,0,0.0,-999.0,90,0.00,,,-99.99,,2013-05-13 11:01:00,
2013-05-13 03:06:00,42.3,39.8,29.38,North,0,0.0,-999.0,90,0.00,,,-99.99,,2013-05-13 11:06:00,
2013-05-13 03:11:00,42.1,39.6,29.38,North,0,0.0,-999.0,90,0.00,,,-99.99,,2013-05-13 11:11:00,
2013-05-13 03:16:00,42.4,39.8,29.38,North,0,0.0,-999.0,90,0.00,,,-99.99,,2013-05-13 11:16:00,
2013-05-13 03:21:00,42.4,39.8,29.38,North,0,0.0,-999.0,90,0.00,,,-99.99,,2013-05-13 11:21:00,
2013-05-13 03:26:00,42.2,39.5,29.38,North,0,0.0,-999.0,89,0.00,,,-99.99,,2013-05-13 11:26:00,
2013-05-13 03:31:00,42.1,39.5,29.38,North,0,0.0,-999.0,90,0.00,,,-99.99,,2013-05-13 11:31:00,
2013-05-13 03:36:00,42.6,39.9,29.38,North,0,0.0,-999.0,90,0.00,,,-99.99,,2013-05-13 11:36:00,
2013-05-13 03:41:00,42.6,39.8,29.38,North,0,0.0,-999.0,89,0.00,,,-99.99,,2013-05-13 11:41:00,
2013-05-13 03:46:00,42.7,39.8,29.38,North,0,0.0,-999.0,89,0.00,,,-99.99,,2013-05-13 11:46:00,
2013-05-13 03:51:00,42.4,39.7,29.38,North,0,0.0,-999.0,90,0.00,,,-99.99,,2013-05-13 11:51:00,
2013-05-13 03:56:00,42.8,40.1,29.38,North,0,0.0,-999.0,90,0.00,,,-99.99,,2013-05-13 11:56:00,
2013-05-13 04:01:00,42.8,39.8,29.36,North,0,0.0,-999.0,89,0.00,,,-99.99,,2013-05-13 12:01:00,
2013-05-13 04:06:00,42.7,39.7,29.36,North,0,0.0,-999.0,89,0.00,,,-99.99,,2013-05-13 12:06:00,
2013-05-13 04:11:00,42.9,40.1,29.36,North,0,0.0,-999.0,89,0.00,,,-99.99,,2013-05-13 12:11:00,
2013-05-13 04:16:00,42.7,39.7,29.36,North,0,0.0,-999.0,89,0.00,,,-99.99,,2013-05-13 12:16:00,
2013-05-13 04:21:00,42.6,39.5,29.36,North,0,0.0,-999.0,88,0.00,,,-99.99,,2013-05-13 12:21:00,
2013-05-13 04:26:00,42.2,39.3,29.36,North,0,0.0,-999.0,89,0.00,,,-99.99,,2013-05-13 12:26:00,
2013-05-13 04:31:00,42.1,39.2,29.36,North,0,0.0,-999.0,89,0.00,,,-99.99,,2013-05-13 12:31:00,
2013-05-13 04:36:00,42.2,39.3,29.36,North,0,0.0,-999.0,89,0.00,,,-99.99,,2013-05-13 12:36:00,
2013-05-13 04:41:00,41.8,38.9,29.36,North,0,0.0,-999.0,89,0.00,,,-99.99,,2013-05-13 12:41:00,
2013-05-13 04:46:00,41.7,38.9,29.36,North,0,0.0,-999.0,89,0.00,,,-99.99,,2013-05-13 12:46:00,
2013-05-13 04:51:00,41.6,38.9,29.36,North,0,0.0,-999.0,89,0.00,,,-99.99,,2013-05-13 12:51:00,
2013-05-13 04:56:00,41.6,39.1,29.36,North,0,0.0,-999.0,90,0.00,,,-99.99,,2013-05-13 12:56:00,
2013-05-13 05:01:00,41.6,39.2,29.36,North,0,0.0,-999.0,90,0.00,,,-99.99,,2013-05-13 13:01:00,
2013-05-13 05:06:00,41.6,39.0,29.36,North,0,0.0,-999.0,90,0.00,,,-99.99,,2013-05-13 13:06:00,
2013-05-13 05:11:00,41.8,38.8,29.36,North,0,0.0,-999.0,89,0.00,,,-99.99,,2013-05-13 13:11:00,
2013-05-13 05:16:00,41.7,38.3,29.36,North,0,0.0,-999.0,87,0.00,,,-99.99,,2013-05-13 13:16:00,
2013-05-13 05:21:00,41.8,38.2,29.36,North,0,0.0,-999.0,86,0.00,,,-99.99,,2013-05-13 13:21:00,
2013-05-13 05:26:00,42.0,38.3,29.36,North,0,0.0,-999.0,86,0.00,,,-99.99,,2013-05-13 13:26:00,
2013-05-13 05:31:00,41.8,38.0,29.36,North,0,0.0,-999.0,86,0.00,,,-99.99,,2013-05-13 13:31:00,
2013-05-13 05:36:00,41.9,38.3,29.36,North,0,0.0,-999.0,86,0.00,,,-99.99,,2013-05-13 13:36:00,
2013-05-13 05:41:00,41.6,38.2,29.36,North,0,0.0,-999.0,87,0.00,,,-99.99,,2013-05-13 13:41:00,
2013-05-13 05:46:00,41.5,38.0,29.36,North,0,0.0,-999.0,87,0.00,,,-99.99,,2013-05-13 13:46:00,
2013-05-13 05:51:00,41.5,38.0,29.36,North,0,0.0,-999.0,87,0.00,,,-99.99,,2013-05-13 13:51:00,
2013-05-13 05:56:00,41.4,37.8,29.36,North,0,0.0,-999.0,86,0.00,,,-99.99,,2013-05-13 13:56:00,
2013-05-13 06:01:00,41.2,37.5,29.35,North,0,0.0,-999.0,86,0.00,,,-99.99,,2013-05-13 14:01:00,
2013-05-13 06:06:00,40.9,37.1,29.35,North,0,0.0,-999.0,86,0.00,,,-99.99,,2013-05-13 14:06:00,
2013-05-13 06:11:00,40.9,37.0,29.35,North,0,0.0,-999.0,85,0.00,,,-99.99,,2013-05-13 14:11:00,
2013-05-13 06:16:00,40.8,36.7,29.35,North,0,0.0,-999.0,84,0.00,,,-99.99,,2013-05-13 14:16:00,
2013-05-13 06:21:00,40.8,37.0,29.35,North,0,0.0,-999.0,86,0.00,,,-99.99,,2013-05-13 14:21:00,
2013-05-13 06:26:00,40.6,36.8,29.35,North,0,0.0,-999.0,86,0.00,,,-99.99,,2013-05-13 14:26:00,
2013-05-13 06:31:00,40.6,36.8,29.35,North,0,0.0,-999.0,86,0.00,,,-99.99,,2013-05-13 14:31:00,
2013-05-13 06:36:00,40.2,36.4,29.35,North,0,0.0,-999.0,86,0.00,,,-99.99,,2013-05-13 14:36:00,
2013-05-13 06:41:00,40.0,36.5,29.35,North,0,0.0,-999.0,86,0.00,,,-99.99,,2013-05-13 14:41:00,
2013-05-13 06:46:00,40.0,36.5,29.35,North,0,0.0,-999.0,87,0.00,,,-99.99,,2013-05-13 14:46:00,
2013-05-13 06:51:00,40.2,36.7,29.35,North,0,0.0,-999.0,87,0.00,,,-99.99,,2013-05-13 14:51:00,
2013-05-13 06:56:00,40.3,37.0,29.35,North,0,0.0,-999.0,87,0.00,,,-99.99,,2013-05-13 14:56:00,
2013-05-13 07:01:00,41.4,37.9,29.35,North,0,0.0,-999.0,87,0.00,,,-99.99,,2013-05-13 15:01:00,
2013-05-13 07:06:00,42.1,37.8,29.35,North,0,0.0,-999.0,84,0.00,,,-99.99,,2013-05-13 15:06:00,
2013-05-13 07:11:00,42.1,37.8,29.35,North,0,0.0,-999.0,84,0.00,,,-99.99,,2013-05-13 15:11:00,
2013-05-13 07:17:00,43.5,38.5,29.35,North,0,0.0,-999.0,82,0.00,,,-99.99,,2013-05-13 15:17:00,
2013-05-13 07:22:00,44.5,38.2,29.35,North,0,0.0,-999.0,78,0.00,,,-99.99,,2013-05-13 15:22:00,
2013-05-13 07:27:00,44.8,38.4,29.35,North,0,0.0,-999.0,78,0.00,,,-99.99,,2013-05-13 15:27:00,
2013-05-13 07:32:00,47.2,39.8,29.35,North,0,0.0,-999.0,75,0.00,,,-99.99,,2013-05-13 15:32:00,
2013-05-13 07:37:00,48.5,39.5,29.35,North,0,0.0,-999.0,70,0.00,,,-99.99,,2013-05-13 15:37:00,
2013-05-13 07:42:00,48.8,39.8,29.35,North,0,0.0,-999.0,70,0.00,,,-99.99,,2013-05-13 15:42:00,
2013-05-13 07:47:00,48.3,39.2,29.35,North,0,0.0,-999.0,70,0.00,,,-99.99,,2013-05-13 15:47:00,
2013-05-13 07:52:00,48.5,39.5,29.35,North,0,0.0,-999.0,70,0.00,,,-99.99,,2013-05-13 15:52:00,
2013-05-13 07:57:00,48.4,40.0,29.35,North,0,0.0,-999.0,72,0.00,,,-99.99,,2013-05-13 15:57:00,
2013-05-13 08:02:00,49.6,40.2,29.34,North,0,0.0,-999.0,69,0.00,,,-99.99,,2013-05-13 16:02:00,
2013-05-13 08:07:00,48.9,39.4,29.34,North,0,0.0,-999.0,69,0.00,,,-99.99,,2013-05-13 16:07:00,
2013-05-13 08:12:00,48.6,39.7,29.34,North,0,0.0,-999.0,71,0.00,,,-99.99,,2013-05-13 16:12:00,
2013-05-13 08:17:00,49.1,39.7,29.34,North,0,0.0,-999.0,69,0.00,,,-99.99,,2013-05-13 16:17:00,
2013-05-13 08:22:00,49.7,39.7,29.34,North,0,0.0,-999.0,68,0.00,,,-99.99,,2013-05-13 16:22:00,
2013-05-13 08:27:00,50.8,40.2,29.34,North,0,0.0,-999.0,66,0.00,,,-99.99,,2013-05-13 16:27:00,
2013-05-13 08:32:00,51.5,40.0,29.34,North,0,0.0,-999.0,64,0.00,,,-99.99,,2013-05-13 16:32:00,
2013-05-13 08:37:00,52.5,41.0,29.34,North,0,0.0,-999.0,64,0.00,,,-99.99,,2013-05-13 16:37:00,
2013-05-13 08:42:00,52.0,38.7,29.34,North,0,0.0,-999.0,60,0.00,,,-99.99,,2013-05-13 16:42:00,
2013-05-13 08:47:00,51.3,37.9,29.34,North,0,0.0,-999.0,60,0.00,,,-99.99,,2013-05-13 16:47:00,
2013-05-13 08:52:00,50.2,40.1,29.34,North,0,0.0,-999.0,68,0.00,,,-99.99,,2013-05-13 16:52:00,
2013-05-13 08:57:00,51.9,41.5,29.34,North,0,0.0,-999.0,67,0.00,,,-99.99,,2013-05-13 16:57:00,
2013-05-13 09:02:00,53.0,37.9,29.34,North,0,0.0,-999.0,56,0.00,,,-99.99,,2013-05-13 17:02:00,
2013-05-13 09:07:00,53.0,39.2,29.34,North,0,0.0,-999.0,59,0.00,,,-99.99,,2013-05-13 17:07:00,
2013-05-13 09:12:00,52.6,40.6,29.34,North,0,0.0,-999.0,63,0.00,,,-99.99,,2013-05-13 17:12:00,
2013-05-13 09:17:00,52.5,40.0,29.34,North,0,0.0,-999.0,62,0.00,,,-99.99,,2013-05-13 17:17:00,
2013-05-13 09:22:00,52.3,39.0,29.34,North,0,0.0,-999.0,60,0.00,,,-99.99,,2013-05-13 17:22:00,
2013-05-13 09:27:00,52.6,40.1,29.34,North,0,0.0,-999.0,62,0.00,,,-99.99,,2013-05-13 17:27:00,
2013-05-13 09:32:00,54.1,40.7,29.34,North,0,0.0,-999.0,60,0.00,,,-99.99,,2013-05-13 17:32:00,
2013-05-13 09:37:00,53.5,39.9,29.34,North,0,0.0,-999.0,59,0.00,,,-99.99,,2013-05-13 17:37:00,
2013-05-13 09:42:00,52.5,39.1,29.34,North,0,0.0,-999.0,60,0.00,,,-99.99,,2013-05-13 17:42:00,
2013-05-13 09:47:00,53.4,40.2,29.34,North,0,0.0,-999.0,60,0.00,,,-99.99,,2013-05-13 17:47:00,
2013-05-13 09:52:00,54.3,39.8,29.34,North,0,0.0,-999.0,58,0.00,,,-99.99,,2013-05-13 17:52:00,
2013-05-13 09:57:00,53.0,36.6,29.34,North,0,0.0,-999.0,53,0.00,,,-99.99,,2013-05-13 17:57:00,
2013-05-13 10:02:00,53.7,37.3,29.34,North,0,0.0,-999.0,53,0.00,,,-99.99,,2013-05-13 18:02:00,
2013-05-13 10:07:00,54.5,38.4,29.34,North,0,0.0,-999.0,54,0.00,,,-99.99,,2013-05-13 18:07:00,
2013-05-13 10:12:00,55.3,37.1,29.34,North,0,0.0,-999.0,50,0.00,,,-99.99,,2013-05-13 18:12:00,
2013-05-13 10:17:00,53.8,38.3,29.34,North,0,0.0,-999.0,55,0.00,,,-99.99,,2013-05-13 18:17:00,
2013-05-13 10:22:00,53.3,35.8,29.34,North,0,0.0,-999.0,51,0.00,,,-99.99,,2013-05-13 18:22:00,
2013-05-13 10:27:00,53.4,36.2,29.34,North,0,0.0,-999.0,51,0.00,,,-99.99,,2013-05-13 18:27:00,
2013-05-13 10:32:00,53.8,35.9,29.34,North,0,0.0,-999.0,50,0.00,,,-99.99,,2013-05-13 18:32:00,
2013-05-13 10:37:00,53.6,36.4,29.34,North,0,0.0,-999.0,52,0.00,,,-99.99,,2013-05-13 18:37:00,
2013-05-13 10:42:00,52.6,31.1,29.34,North,0,0.0,-999.0,43,0.00,,,-99.99,,2013-05-13 18:42:00,
2013-05-13 10:47:00,53.8,36.2,29.34,North,0,0.0,-999.0,51,0.00,,,-99.99,,2013-05-13 18:47:00,
2013-05-13 10:52:00,53.0,35.0,29.34,North,0,0.0,-999.0,50,0.00,,,-99.99,,2013-05-13 18:52:00,
2013-05-13 10:57:00,52.4,33.6,29.34,North,0,0.0,-999.0,48,0.00,,,-99.99,,2013-05-13 18:57:00,
2013-05-13 11:02:00,53.2,34.6,29.34,North,0,0.0,-999.0,49,0.00,,,-99.99,,2013-05-13 19:02:00,
2013-05-13 11:07:00,52.9,33.2,29.34,North,0,0.0,-999.0,47,0.00,,,-99.99,,2013-05-13 19:07:00,
2013-05-13 11:12:00,52.7,35.0,29.34,North,0,0.0,-999.0,50,0.00,,,-99.99,,2013-05-13 19:12:00,
2013-05-13 11:17:00,54.3,34.3,29.34,North,0,0.0,-999.0,46,0.00,,,-99.99,,2013-05-13 19:17:00,
2013-05-13 11:22:00,53.9,35.3,29.34,North,0,0.0,-999.0,49,0.00,,,-99.99,,2013-05-13 19:22:00,
2013-05-13 11:27:00,53.9,36.4,29.34,North,0,0.0,-999.0,51,0.00,,,-99.99,,2013-05-13 19:27:00,
2013-05-13 11:32:00,53.3,33.2,29.34,North,0,0.0,-999.0,46,0.00,,,-99.99,,2013-05-13 19:32:00,
2013-05-13 11:37:00,53.5,35.2,29.34,North,0,0.0,-999.0,49,0.00,,,-99.99,,2013-05-13 19:37:00,
2013-05-13 11:42:00,53.5,34.4,29.34,North,0,0.0,-999.0,48,0.00,,,-99.99,,2013-05-13 19:42:00,
2013-05-13 11:47:00,53.3,34.2,29.34,North,0,0.0,-999.0,48,0.00,,,-99.99,,2013-05-13 19:47:00,
2013-05-13 11:52:00,53.7,32.0,29.34,North,0,0.0,-999.0,43,0.00,,,-99.99,,2013-05-13 19:52:00,
2013-05-13 11:57:00,53.5,33.7,29.34,North,0,0.0,-999.0,46,0.00,,,-99.99,,2013-05-13 19:57:00,
2013-05-13 12:02:00,54.0,33.3,29.35,North,0,0.0,-999.0,45,0.00,,,-99.99,,2013-05-13 20:02:00,
2013-05-13 12:07:00,53.5,33.2,29.35,North,0,0.0,-999.0,45,0.00,,,-99.99,,2013-05-13 20:07:00,
2013-05-13 12:12:00,53.6,32.9,29.35,North,0,0.0,-999.0,45,0.00,,,-99.99,,2013-05-13 20:12:00,
2013-05-13 12:17:00,42.3,42.3,14.14,East,98,4.2,-999.0,0,0.01,,,-99.99,,2013-05-13 20:17:00,
2013-05-13 12:22:00,54.7,33.8,29.35,North,0,0.0,-999.0,45,0.00,,,-99.99,,2013-05-13 20:22:00,
2013-05-13 12:27:00,54.6,32.9,29.35,North,0,0.0,-999.0,43,0.00,,,-99.99,,2013-05-13 20:27:00,
2013-05-13 12:32:00,54.0,35.0,29.35,North,0,0.0,-999.0,48,0.00,,,-99.99,,2013-05-13 20:32:00,
2013-05-13 12:37:00,54.7,33.8,29.35,North,0,0.0,-999.0,45,0.00,,,-99.99,,2013-05-13 20:37:00,
2013-05-13 12:42:00,55.2,32.5,29.35,North,0,0.0,-999.0,41,0.00,,,-99.99,,2013-05-13 20:42:00,
2013-05-13 12:47:00,55.8,31.1,29.35,North,0,0.0,-999.0,38,0.00,,,-99.99,,2013-05-13 20:47:00,
2013-05-13 12:52:00,55.0,33.2,29.35,North,0,0.0,-999.0,43,0.00,,,-99.99,,2013-05-13 20:52:00,
2013-05-13 12:57:00,56.1,33.1,29.35,North,0,0.0,-999.0,41,0.00,,,-99.99,,2013-05-13 20:57:00,
2013-05-13 13:02:00,55.4,30.8,29.35,North,0,0.0,-999.0,38,0.00,,,-99.99,,2013-05-13 21:02:00,
2013-05-13 13:07:00,54.5,31.0,29.35,North,0,0.0,-999.0,40,0.00,,,-99.99,,2013-05-13 21:07:00,
2013-05-13 13:12:00,41.6,41.6,13.58,ENE,73,3.5,-999.0,0,0.00,,,-99.99,,2013-05-13 21:12:00,
2013-05-13 13:17:00,54.9,33.0,29.35,North,0,0.0,-999.0,43,0.00,,,-99.99,,2013-05-13 21:17:00,
2013-05-13 13:22:00,54.5,31.2,29.35,North,0,0.0,-999.0,40,0.00,,,-99.99,,2013-05-13 21:22:00,
2013-05-13 13:27:00,55.9,32.0,29.35,North,0,0.0,-999.0,40,0.00,,,-99.99,,2013-05-13 21:27:00,
2013-05-13 13:32:00,54.9,33.9,29.35,North,0,0.0,-999.0,44,0.00,,,-99.99,,2013-05-13 21:32:00,
2013-05-13 13:37:00,54.2,31.6,29.35,North,0,0.0,-999.0,42,0.00,,,-99.99,,2013-05-13 21:37:00,
2013-05-13 13:42:00,55.7,31.0,29.35,North,0,0.0,-999.0,38,0.00,,,-99.99,,2013-05-13 21:42:00,
2013-05-13 13:47:00,54.2,30.1,29.35,North,0,0.0,-999.0,39,0.00,,,-99.99,,2013-05-13 21:47:00,
2013-05-13 13:52:00,54.9,33.0,29.35,North,0,0.0,-999.0,43,0.00,,,-99.99,,2013-05-13 21:52:00,
2013-05-13 13:57:00,55.3,28.3,29.35,North,0,0.0,-999.0,35,0.00,,,-99.99,,2013-05-13 21:57:00,
2013-05-13 14:02:00,55.3,31.0,29.35,North,0,0.0,-999.0,39,0.00,,,-99.99,,2013-05-13 22:02:00,
2013-05-13 14:07:00,54.3,30.8,29.35,North,0,0.0,-999.0,40,0.00,,,-99.99,,2013-05-13 22:07:00,
2013-05-13 14:12:00,54.3,30.3,29.35,North,0,0.0,-999.0,39,0.00,,,-99.99,,2013-05-13 22:12:00,
2013-05-13 14:17:00,54.2,31.5,29.35,North,0,0.0,-999.0,41,0.00,,,-99.99,,2013-05-13 22:17:00,
2013-05-13 14:22:00,55.4,32.2,29.35,North,0,0.0,-999.0,41,0.00,,,-99.99,,2013-05-13 22:22:00,
2013-05-13 14:27:00,54.5,31.1,29.35,North,0,0.0,-999.0,40,0.00,,,-99.99,,2013-05-13 22:27:00,
2013-05-13 14:32:00,55.0,31.4,29.35,North,0,0.0,-999.0,40,0.00,,,-99.99,,2013-05-13 22:32:00,
2013-05-13 14:37:00,55.5,32.5,29.35,North,0,0.0,-999.0,41,0.00,,,-99.99,,2013-05-13 22:37:00,
2013-05-13 14:42:00,56.0,33.1,29.35,North,0,0.0,-999.0,41,0.00,,,-99.99,,2013-05-13 22:42:00,
2013-05-13 14:47:00,55.7,32.4,29.35,North,0,0.0,-999.0,41,0.00,,,-99.99,,2013-05-13 22:47:00,
2013-05-13 14:52:00,54.9,31.9,29.35,North,0,0.0,-999.0,41,0.00,,,-99.99,,2013-05-13 22:52:00,
2013-05-13 14:57:00,55.0,30.8,29.35,North,0,0.0,-999.0,39,0.00,,,-99.99,,2013-05-13 22:57:00,
2013-05-13 15:02:00,54.4,31.5,29.35,North,0,0.0,-999.0,41,0.00,,,-99.99,,2013-05-13 23:02:00,
2013-05-13 15:07:00,54.3,31.7,29.35,North,0,0.0,-999.0,41,0.00,,,-99.99,,2013-05-13 23:07:00,
2013-05-13 15:12:00,42.1,42.1,12.38,NW,308,5.2,-999.0,0,0.00,,,-99.99,,2013-05-13 23:12:00,
2013-05-13 15:17:00,54.9,30.5,29.35,North,0,0.0,-999.0,39,0.00,,,-99.99,,2013-05-13 23:17:00,
2013-05-13 15:22:00,55.0,30.9,29.35,North,0,0.0,-999.0,39,0.00,,,-99.99,,2013-05-13 23:22:00,
2013-05-13 15:27:00,54.6,30.6,29.35,North,0,0.0,-999.0,39,0.00,,,-99.99,,2013-05-13 23:27:00,
2013-05-13 15:32:00,55.6,32.4,29.35,North,0,0.0,-999.0,41,0.00,,,-99.99,,2013-05-13 23:32:00,
2013-05-13 15:37:00,54.6,32.1,29.35,North,0,0.0,-999.0,42,0.00,,,-99.99,,2013-05-13 23:37:00,
2013-05-13 15:42:00,55.3,32.1,29.35,North,0,0.0,-999.0,41,0.00,,,-99.99,,2013-05-13 23:42:00,
2013-05-13 15:47:00,55.0,32.5,29.35,North,0,0.0,-999.0,42,0.00,,,-99.99,,2013-05-13 23:47:00,
2013-05-13 15:52:00,54.9,34.9,29.35,North,0,0.0,-999.0,46,0.00,,,-99.99,,2013-05-13 23:52:00,
2013-05-13 15:57:00,54.8,30.7,29.35,North,0,0.0,-999.0,39,0.00,,,-99.99,,2013-05-13 23:57:00,
2013-05-13 16:02:00,56.0,31.7,29.35,North,0,0.0,-999.0,39,0.00,,,-99.99,,2013-05-14 00:02:00,
2013-05-13 16:07:00,56.0,31.1,29.35,North,0,0.0,-999.0,38,0.00,,,-99.99,,2013-05-14 00:07:00,
2013-05-13 16:12:00,55.3,28.2,29.35,North,0,0.0,-999.0,35,0.00,,,-99.99,,2013-05-14 00:12:00,
2013-05-13 16:17:00,54.3,27.8,29.35,North,0,0.0,-999.0,35,0.00,,,-99.99,,2013-05-14 00:17:00,
2013-05-13 16:24:00,55.2,29.7,29.35,North,0,0.0,-999.0,37,0.00,,,-99.99,,2013-05-14 00:24:00,
2013-05-13 16:29:00,54.8,27.4,29.35,North,0,0.0,-999.0,34,0.00,,,-99.99,,2013-05-14 00:29:00,
2013-05-13 16:34:00,53.6,34.4,29.35,North,0,0.0,-999.0,47,0.00,,,-99.99,,2013-05-14 00:34:00,
2013-05-13 16:39:00,52.0,37.3,29.35,North,0,0.0,-999.0,57,0.00,,,-99.99,,2013-05-14 00:39:00,
2013-05-13 16:44:00,49.2,38.9,29.35,North,0,0.0,-999.0,67,0.00,,,-99.99,,2013-05-14 00:44:00,
2013-05-13 16:49:00,48.3,38.6,29.35,North,0,0.0,-999.0,69,0.00,,,-99.99,,2013-05-14 00:49:00,
2013-05-13 16:54:00,46.8,38.1,29.35,North,0,0.0,-999.0,71,0.00,,,-99.99,,2013-05-14 00:54:00,
2013-05-13 16:59:00,47.9,38.2,29.36,North,0,0.0,-999.0,68,0.00,,,-99.99,,2013-05-14 00:59:00,
2013-05-13 17:04:00,47.1,38.0,29.36,North,0,0.0,-999.0,70,0.00,,,-99.99,,2013-05-14 01:04:00,
2013-05-13 17:09:00,46.2,38.3,29.36,North,0,0.0,-999.0,73,0.00,,,-99.99,,2013-05-14 01:09:00,
2013-05-13 17:14:00,46.0,38.4,29.36,North,0,0.0,-999.0,74,0.00,,,-99.99,,2013-05-14 01:14:00,
2013-05-13 17:19:00,46.2,38.6,29.36,North,0,0.0,-999.0,74,0.00,,,-99.99,,2013-05-14 01:19:00,
2013-05-13 17:24:00,47.1,38.9,29.36,North,0,0.0,-999.0,72,0.00,,,-99.99,,2013-05-14 01:24:00,
2013-05-13 17:29:00,46.8,38.3,29.36,North,0,0.0,-999.0,72,0.00,,,-99.99,,2013-05-14 01:29:00,
2013-05-13 17:34:00,46.8,38.8,29.36,North,0,0.0,-999.0,73,0.00,,,-99.99,,2013-05-14 01:34:00,
2013-05-13 17:39:00,46.3,38.8,29.36,North,0,0.0,-999.0,75,0.00,,,-99.99,,2013-05-14 01:39:00,
2013-05-13 17:44:00,45.3,38.2,29.36,North,0,0.0,-999.0,76,0.00,,,-99.99,,2013-05-14 01:44:00,
2013-05-13 17:49:00,45.4,38.0,29.36,North,0,0.0,-999.0,75,0.00,,,-99.99,,2013-05-14 01:49:00,
2013-05-13 17:54:00,44.7,37.8,29.36,North,0,0.0,-999.0,76,0.00,,,-99.99,,2013-05-14 01:54:00,
2013-05-13 17:59:00,45.6,38.1,29.37,North,0,0.0,-999.0,74,0.00,,,-99.99,,2013-05-14 01:59:00,
2013-05-13 18:04:00,45.8,38.0,29.37,North,0,0.0,-999.0,73,0.00,,,-99.99,,2013-05-14 02:04:00,
2013-05-13 18:09:00,46.5,37.9,29.37,North,0,0.0,-999.0,71,0.00,,,-99.99,,2013-05-14 02:09:00,
2013-05-13 18:14:00,45.8,38.0,29.37,North,0,0.0,-999.0,73,0.00,,,-99.99,,2013-05-14 02:14:00,
2013-05-13 18:19:00,44.8,37.9,29.37,North,0,0.0,-999.0,76,0.00,,,-99.99,,2013-05-14 02:19:00,
2013-05-13 18:24:00,46.2,38.3,29.37,North,0,0.0,-999.0,73,0.00,,,-99.99,,2013-05-14 02:24:00,
2013-05-13 18:29:00,45.6,37.5,29.37,North,0,0.0,-999.0,73,0.00,,,-99.99,,2013-05-14 02:29:00,
2013-05-13 18:34:00,45.1,37.8,29.37,North,0,0.0,-999.0,75,0.00,,,-99.99,,2013-05-14 02:34:00,
2013-05-13 18:39:00,45.0,37.6,29.37,North,0,0.0,-999.0,75,0.00,,,-99.99,,2013-05-14 02:39:00,
2013-05-13 18:44:00,45.3,37.6,29.37,North,0,0.0,-999.0,74,0.00,,,-99.99,,2013-05-14 02:44:00,
2013-05-13 18:49:00,45.2,37.6,29.37,North,0,0.0,-999.0,74,0.00,,,-99.99,,2013-05-14 02:49:00,
2013-05-13 18:54:00,44.7,37.3,29.37,North,0,0.0,-999.0,75,0.00,,,-99.99,,2013-05-14 02:54:00,
2013-05-13 18:59:00,45.0,37.7,29.37,North,0,0.0,-999.0,75,0.00,,,-99.99,,2013-05-14 02:59:00,
2013-05-13 19:04:00,44.8,37.6,29.37,North,0,0.0,-999.0,75,0.00,,,-99.99,,2013-05-14 03:04:00,
2013-05-13 19:09:00,45.1,37.1,29.37,North,0,0.0,-999.0,73,0.00,,,-99.99,,2013-05-14 03:09:00,
2013-05-13 19:14:00,45.0,36.9,29.37,North,0,0.0,-999.0,73,0.00,,,-99.99,,2013-05-14 03:14:00,
2013-05-13 19:19:00,44.5,36.8,29.37,North,0,0.0,-999.0,74,0.00,,,-99.99,,2013-05-14 03:19:00,
2013-05-13 19:24:00,44.4,36.6,29.37,North,0,0.0,-999.0,73,0.00,,,-99.99,,2013-05-14 03:24:00,
2013-05-13 19:29:00,44.4,36.8,29.37,North,0,0.0,-999.0,74,0.00,,,-99.99,,2013-05-14 03:29:00,
2013-05-13 19:34:00,44.7,36.1,29.37,North,0,0.0,-999.0,71,0.00,,,-99.99,,2013-05-14 03:34:00,
2013-05-13 19:39:00,44.3,36.1,29.37,North,0,0.0,-999.0,72,0.00,,,-99.99,,2013-05-14 03:39:00,
2013-05-13 19:44:00,44.1,36.1,29.37,North,0,0.0,-999.0,73,0.00,,,-99.99,,2013-05-14 03:44:00,
2013-05-13 19:49:00,44.5,36.0,29.37,North,0,0.0,-999.0,71,0.00,,,-99.99,,2013-05-14 03:49:00,
2013-05-13 19:54:00,44.1,35.3,29.37,North,0,0.0,-999.0,71,0.00,,,-99.99,,2013-05-14 03:54:00,
2013-05-13 19:59:00,44.2,35.8,29.38,North,0,0.0,-999.0,72,0.00,,,-99.99,,2013-05-14 03:59:00,
2013-05-13 20:01:00,44.4,36.0,29.38,North,0,0.0,-999.0,72,0.00,,,-99.99,,2013-05-14 04:01:00,
2013-05-13 20:02:00,44.3,36.0,29.38,North,0,0.0,-999.0,72,0.00,,,-99.99,,2013-05-14 04:02:00,
2013-05-13 20:04:00,44.2,35.6,29.38,North,0,0.0,-999.0,71,0.00,,,-99.99,,2013-05-14 04:04:00,
2013-05-13 20:07:00,44.0,35.8,29.38,North,0,0.0,-999.0,72,0.00,,,-99.99,,2013-05-14 04:07:00,
2013-05-13 20:09:00,44.1,36.0,29.38,North,0,0.0,-999.0,73,0.00,,,-99.99,,2013-05-14 04:09:00,
2013-05-13 20:14:00,44.4,36.2,29.38,North,0,0.0,-999.0,72,0.00,,,-99.99,,2013-05-14 04:14:00,
2013-05-13 20:19:00,44.6,36.1,29.38,North,0,0.0,-999.0,71,0.00,,,-99.99,,2013-05-14 04:19:00,
2013-05-13 20:24:00,44.5,36.0,29.38,North,0,0.0,-999.0,72,0.00,,,-99.99,,2013-05-14 04:24:00,
2013-05-13 20:29:00,44.6,35.5,29.38,North,0,0.0,-999.0,70,0.00,,,-99.99,,2013-05-14 04:29:00,
2013-05-13 20:34:00,44.7,36.2,29.38,North,0,0.0,-999.0,71,0.00,,,-99.99,,2013-05-14 04:34:00,
2013-05-13 20:39:00,45.3,36.5,29.38,North,0,0.0,-999.0,70,0.00,,,-99.99,,2013-05-14 04:39:00,
2013-05-13 20:44:00,45.9,36.6,29.38,North,0,0.0,-999.0,69,0.00,,,-99.99,,2013-05-14 04:44:00,
2013-05-13 20:49:00,45.6,36.4,29.38,North,0,0.0,-999.0,69,0.00,,,-99.99,,2013-05-14 04:49:00,
2013-05-13 20:54:00,45.2,36.0,29.38,North,0,0.0,-999.0,70,0.00,,,-99.99,,2013-05-14 04:54:00,
2013-05-13 20:59:00,44.8,35.8,29.38,North,0,0.0,-999.0,70,0.00,,,-99.99,,2013-05-14 04:59:00,
2013-05-13 21:04:00,44.8,36.0,29.38,North,0,0.0,-999.0,70,0.00,,,-99.99,,2013-05-14 05:04:00,
2013-05-13 21:09:00,44.8,36.1,29.38,North,0,0.0,-999.0,71,0.00,,,-99.99,,2013-05-14 05:09:00,
2013-05-13 21:14:00,44.7,36.1,29.38,North,0,0.0,-999.0,71,0.00,,,-99.99,,2013-05-14 05:14:00,
2013-05-13 21:19:00,44.7,36.5,29.38,North,0,0.0,-999.0,72,0.00,,,-99.99,,2013-05-14 05:19:00,
2013-05-13 21:24:00,44.5,36.4,29.38,North,0,0.0,-999.0,72,0.00,,,-99.99,,2013-05-14 05:24:00,
2013-05-13 21:29:00,44.5,36.5,29.38,North,0,0.0,-999.0,73,0.00,,,-99.99,,2013-05-14 05:29:00,
2013-05-13 21:34:00,44.2,36.2,29.38,North,0,0.0,-999.0,73,0.00,,,-99.99,,2013-05-14 05:34:00,
2013-05-13 21:39:00,43.9,35.9,29.38,North,0,0.0,-999.0,73,0.00,,,-99.99,,2013-05-14 05:39:00,
2013-05-13 21:44:00,43.7,36.0,29.38,North,0,0.0,-999.0,74,0.00,,,-99.99,,2013-05-14 05:44:00,
2013-05-13 21:49:00,43.0,35.9,29.38,North,0,0.0,-999.0,75,0.00,,,-99.99,,2013-05-14 05:49:00,
2013-05-13 21:54:00,42.6,35.8,29.38,North,0,0.0,-999.0,76,0.00,,,-99.99,,2013-05-14 05:54:00,
2013-05-13 21:59:00,42.1,35.7,29.40,North,0,0.0,-999.0,77,0.00,,,-99.99,,2013-05-14 05:59:00,
2013-05-13 22:04:00,42.0,36.0,29.40,North,0,0.0,-999.0,79,0.00,,,-99.99,,2013-05-14 06:04:00,
2013-05-13 22:09:00,41.8,35.8,29.40,North,0,0.0,-999.0,79,0.00,,,-99.99,,2013-05-14 06:09:00,
2013-05-13 22:14:00,41.5,35.5,29.40,North,0,0.0,-999.0,79,0.00,,,-99.99,,2013-05-14 06:14:00,
2013-05-13 22:19:00,41.0,35.5,29.40,North,0,0.0,-999.0,80,0.00,,,-99.99,,2013-05-14 06:19:00,
2013-05-13 22:24:00,41.2,35.6,29.40,North,0,0.0,-999.0,80,0.00,,,-99.99,,2013-05-14 06:24:00,
2013-05-13 22:29:00,41.0,35.5,29.40,North,0,0.0,-999.0,80,0.00,,,-99.99,,2013-05-14 06:29:00,
2013-05-13 22:34:00,40.9,35.7,29.40,North,0,0.0,-999.0,81,0.00,,,-99.99,,2013-05-14 06:34:00,
2013-05-13 22:39:00,40.6,35.3,29.40,North,0,0.0,-999.0,81,0.00,,,-99.99,,2013-05-14 06:39:00,
2013-05-13 22:44:00,40.4,35.1,29.40,North,0,0.0,-999.0,81,0.00,,,-99.99,,2013-05-14 06:44:00,
2013-05-13 22:49:00,39.9,34.7,29.40,North,0,0.0,-999.0,81,0.00,,,-99.99,,2013-05-14 06:49:00,
2013-05-13 22:54:00,39.6,34.5,29.40,North,0,0.0,-999.0,81,0.00,,,-99.99,,2013-05-14 06:54:00,
2013-05-13 22:59:00,39.6,34.5,29.41,North,0,0.0,-999.0,81,0.00,,,-99.99,,2013-05-14 06:59:00,
2013-05-13 23:04:00,39.4,33.9,29.41,North,0,0.0,-999.0,80,0.00,,,-99.99,,2013-05-14 07:04:00,
2013-05-13 23:09:00,39.6,33.7,29.41,North,0,0.0,-999.0,79,0.00,,,-99.99,,2013-05-14 07:09:00,
2013-05-13 23:14:00,39.6,33.4,29.41,North,0,0.0,-999.0,78,0.00,,,-99.99,,2013-05-14 07:14:00,
2013-05-13 23:19:00,39.4,32.7,29.41,North,0,0.0,-999.0,76,0.00,,,-99.99,,2013-05-14 07:19:00,
2013-05-13 23:24:00,39.2,32.3,29.41,North,0,0.0,-999.0,76,0.00,,,-99.99,,2013-05-14 07:24:00,
2013-05-13 23:29:00,38.9,32.3,29.41,North,0,0.0,-999.0,76,0.00,,,-99.99,,2013-05-14 07:29:00,
2013-05-13 23:34:00,39.0,33.4,29.41,North,0,0.0,-999.0,80,0.00,,,-99.99,,2013-05-14 07:34:00,
2013-05-13 23:39:00,38.7,32.8,29.41,North,0,0.0,-999.0,79,0.00,,,-99.99,,2013-05-14 07:39:00,
2013-05-13 23:44:00,38.4,32.6,29.41,North,0,0.0,-999.0,79,0.00,,,-99.99,,2013-05-14 07:44:00,
2013-05-13 23:49:00,38.5,32.7,29.41,North,0,0.0,-999.0,79,0.00,,,-99.99,,2013-05-14 07:49:00,
2013-05-13 23:54:00,38.5,32.5,29.41,North,0,0.0,-999.0,78,0.00,,,-99.99,,2013-05-14 07:54:00,
2013-05-13 23:59:00,38.2,32.5,29.42,North,0,0.0,-999.0,79,0.00,,,-99.99,,2013-05-14 07:59:00,